Вернуться в каталог

ARIANE 3 DEB *

LostHEO
NORAD 17253·DEBRIS·🇫🇷 France

Запущен Mar 28, 1986 с Guiana Space Centre

Loading…

Ближайшие Пролёты (ближайшие 24 часа)

TLE

УстаревшееSource: Space-Track

Эпоха: Dec 3, 2022, 14:38 UTC

1 17253U 86026E   22337.61022025  .00008714  00000-0  99069-2 0  9990
2 17253   6.6504 320.5407 6503543 253.9020  29.7620  3.23309930310292

Отслеживайте ARIANE 3 DEB * в реальном времени с AllMySat

Download on the App Store